Location: Doverdale
(52.2833°N, 2.2000°W)
Time: 03:12:12
(UTC+00:00)

Helios 1A Rocket - Pass Details

Date: 29 October 2020
Orbit: 562 x 587 km, 98.3° (Epoch: 24 November)

Event Time Altitude Azimuth Distance (km) Brightness Sun altitude
Rises 17:15:25 0° 128° (SE) 2,797 6.1 -5.3°
Reaches altitude 10° 17:17:52 10° 114° (ESE) 1,897 5.1 -5.7°
Maximum altitude 17:21:09 24° 61° (ENE) 1,236 4.1 -6.2°
Drops below altitude 10° 17:24:25 10° 8° (N) 1,897 5.3 -6.6°
Sets 17:26:53 0° 354° (N) 2,795 6.3 -7.0°
